Location: Plymouth
(43.7570°N, 71.6890°W)
Time: 08:05:48
(UTC-04:00)

Amateur Radio Satellites - All Passes

Search period start: 21 August 2014 07:35
Search period end: 22 August 2014 07:35
Location: Plymouth, 43.7570°N, 71.6890°W

Satellite Date Start Highest point End Downlink Frequencies (MHz)
Time Altitude Azimuth
UOSAT-12 21 Aug 07:44:46 07:48:49 31° 115° (ESE) 07:52:57 437.025 FM, 437.400 FM
STRAND 1 21 Aug 07:49:43 07:53:43 23° 267° (W) 07:57:44 ?
KITSAT 1 21 Aug 07:57:20 08:02:55 20° 24° (NNE) 08:08:29 435.175 FM
Saudisat 1A 21 Aug 08:03:32 08:05:09 12° 31° (NNE) 08:06:46 436.775 MHz
RS-15 21 Aug 08:04:46 08:13:09 26° 102° (ESE) 08:21:24 29.354 - 29.394 USB, Beacon 29.352 USB
SO-50 21 Aug 08:07:18 08:10:49 22° 320° (NW) 08:14:23 436.795 FM
AO-7 21 Aug 08:07:52 08:12:08 15° 317° (NW) 08:16:25 29.400 - 29.500 MHz
Hamsat 21 Aug 08:15:43 08:18:04 14° 298° (WNW) 08:20:25 145.90 MHz
SO-67 21 Aug 08:32:15 08:35:28 36° 288° (WNW) 08:38:39 435.3500 MHz FM
JAS-2 21 Aug 08:43:42 08:46:40 16° 301° (WNW) 08:49:37 435.800 - 435.900 CW/SSB, 435.910 FM
UKube-1 21 Aug 09:13:54 09:16:35 16° 92° (E) 09:19:15 145.840 MHz, 145.915 MHz
UOSAT-12 21 Aug 09:24:36 09:28:53 36° 314° (NW) 09:33:16 437.025 FM, 437.400 FM
Oscar 11 21 Aug 09:31:16 09:33:55 16° 91° (E) 09:36:33 145.825 FM, Beacon 2401.500 USB
Saudisat 1A 21 Aug 09:41:21 09:45:43 56° 52° (NE) 09:50:02 436.775 MHz
HO-68 21 Aug 09:48:36 09:55:43 63° 103° (ESE) 10:02:47 435.675 MHz FM
KITSAT 1 21 Aug 09:52:28 10:00:23 54° 50° (NE) 10:08:14 435.175 FM
RS-15 21 Aug 10:13:00 10:24:07 86° 304° (NW) 10:35:07 29.354 - 29.394 USB, Beacon 29.352 USB
UKube-1 21 Aug 10:48:52 10:53:05 50° 289° (WNW) 10:57:15 145.840 MHz, 145.915 MHz
FUNcube-1 21 Aug 11:02:36 11:06:58 58° 100° (E) 11:11:24 145.950 - 145.970 MHz USB
Oscar 11 21 Aug 11:06:09 11:10:24 51° 288° (WNW) 11:14:38 145.825 FM, Beacon 2401.500 USB
Saudisat 1A 21 Aug 11:21:59 11:24:52 17° 249° (WSW) 11:27:45 436.775 MHz
HO-68 21 Aug 11:37:04 11:42:56 29° 302° (WNW) 11:48:47 435.675 MHz FM
KITSAT 1 21 Aug 11:48:15 11:55:33 39° 250° (WSW) 12:02:50 435.175 FM
Oscar 19 21 Aug 12:00:47 12:03:41 15° 59° (ENE) 12:06:36 437.125 CW, 437.150 USB
JAS-1B 21 Aug 12:18:24 12:25:19 23° 53° (NE) 12:31:52 435.800 - 435.900 CW/SSB
Uribyol 2 21 Aug 12:23:17 12:25:11 12° 56° (NE) 12:27:05 436.500 FM
RS-15 21 Aug 12:28:32 12:38:10 34° 332° (NNW) 12:47:51 29.354 - 29.394 USB, Beacon 29.352 USB
Oscar 16 21 Aug 12:31:59 12:36:21 29° 65° (ENE) 12:40:46 437.025 USB, Beacon 2401.1428
AO-27 21 Aug 12:35:39 12:38:32 15° 58° (ENE) 12:41:25 436.795 MHz FM
FUNcube-1 21 Aug 12:40:18 12:42:56 16° 297° (WNW) 12:45:36 145.950 - 145.970 MHz USB
SO-50 21 Aug 13:16:14 13:19:11 16° 35° (NE) 13:22:09 436.795 FM
AO-7 21 Aug 13:34:16 13:37:46 13° 41° (NE) 13:41:16 29.400 - 29.500 MHz
Oscar 19 21 Aug 13:37:14 13:42:22 79° 257° (WSW) 13:47:34 437.125 CW, 437.150 USB
Gurwin Techsat 1B 21 Aug 13:42:37 13:46:57 26° 64° (ENE) 13:51:18 435.225 FM
ITAMSAT 1 21 Aug 13:46:04 13:51:09 59° 72° (ENE) 13:56:15 435.822 SSB
AO-Echo 21 Aug 13:47:43 13:52:51 65° 73° (ENE) 13:57:50 ?
Uribyol 2 21 Aug 13:58:40 14:03:50 81° 74° (ENE) 14:09:01 436.500 FM
JAS-1B 21 Aug 14:04:36 14:14:30 77° 72° (ENE) 14:23:51 435.800 - 435.900 CW/SSB
Oscar 16 21 Aug 14:10:49 14:15:34 38° 263° (W) 14:20:23 437.025 USB, Beacon 2401.1428
AO-27 21 Aug 14:12:11 14:17:23 81° 256° (WSW) 14:22:36 436.795 MHz FM
Uosat F 21 Aug 14:32:55 14:34:39 12° 56° (ENE) 14:36:22 435.120 FM
UOSAT-12 21 Aug 14:34:47 14:35:44 11° 26° (NNE) 14:36:42 437.025 FM, 437.400 FM
TMSAT-1 21 Aug 14:39:55 14:45:07 60° 72° (ENE) 14:50:20 436.925 FM
ISS 21 Aug 14:41:05 14:44:23 67° 145° (SE) 14:47:41 145.800 FM
RS-15 21 Aug 14:46:28 14:55:02 25° 7° (N) 15:03:42 29.354 - 29.394 USB, Beacon 29.352 USB
MaSat-1 21 Aug 14:54:19 14:58:16 27° 105° (ESE) 15:02:30 437.345 MHz
SO-50 21 Aug 14:55:43 15:00:31 79° 55° (NE) 15:05:21 436.795 FM
AO-7 21 Aug 15:20:41 15:28:39 52° 63° (ENE) 15:36:37 29.400 - 29.500 MHz
Gurwin Techsat 1B 21 Aug 15:21:37 15:26:40 44° 261° (W) 15:31:46 435.225 FM
ITAMSAT 1 21 Aug 15:27:32 15:31:02 18° 269° (W) 15:34:33 435.822 SSB
AO-Echo 21 Aug 15:28:52 15:32:01 16° 269° (W) 15:35:08 ?
Uribyol 2 21 Aug 15:41:40 15:43:56 13° 271° (W) 15:46:11 436.500 FM
JAS-1B 21 Aug 15:57:19 16:05:33 30° 269° (W) 16:13:34 435.800 - 435.900 CW/SSB
Uosat F 21 Aug 16:07:36 16:12:37 82° 74° (ENE) 16:17:40 435.120 FM
UOSAT-12 21 Aug 16:12:40 16:17:11 41° 48° (NE) 16:21:37 437.025 FM, 437.400 FM
ISS 21 Aug 16:18:23 16:21:20 28° 343° (NNW) 16:24:17 145.800 FM
TMSAT-1 21 Aug 16:21:49 16:25:26 19° 269° (W) 16:29:04 436.925 FM
MaSat-1 21 Aug 16:30:34 16:35:09 43° 304° (NW) 16:40:05 437.345 MHz
SO-50 21 Aug 16:38:01 16:40:29 14° 251° (WSW) 16:42:57 436.795 FM
OPAL 21 Aug 16:51:37 16:56:34 42° 101° (E) 17:01:30 ?
RS-15 21 Aug 17:00:35 17:11:05 46° 40° (NE) 17:21:52 29.354 - 29.394 USB, Beacon 29.352 USB
JAS-2 21 Aug 17:09:59 17:16:00 38° 68° (ENE) 17:21:24 435.800 - 435.900 CW/SSB, 435.910 FM
AO-7 21 Aug 17:13:57 17:21:36 39° 262° (W) 17:29:18 29.400 - 29.500 MHz
Hamsat 21 Aug 17:32:43 17:36:51 51° 73° (ENE) 17:41:04 145.90 MHz
Sapphire 21 Aug 17:49:59 17:51:29 11° 101° (ESE) 17:52:58 437.095 MHz 1200 baud AX-25 AFSK
Uosat F 21 Aug 17:50:04 17:52:01 12° 271° (W) 17:53:59 435.120 FM
UOSAT-12 21 Aug 17:53:11 17:57:09 27° 246° (WSW) 18:01:04 437.025 FM, 437.400 FM
ISS 21 Aug 17:56:12 17:58:48 21° 4° (N) 18:01:25 145.800 FM
PCSat 21 Aug 18:17:31 18:21:39 23° 107° (ESE) 18:25:48 145.825 MHz
STRAND 1 21 Aug 18:20:23 18:22:52 14° 89° (E) 18:25:21 ?
OPAL 21 Aug 18:30:53 18:35:15 28° 298° (WNW) 18:39:36 ?
HO-68 21 Aug 18:36:38 18:38:59 12° 46° (NE) 18:41:20 435.675 MHz FM
JAS-2 21 Aug 18:54:54 19:01:04 37° 262° (W) 19:06:36 435.800 - 435.900 CW/SSB, 435.910 FM
SO-67 21 Aug 19:06:02 19:09:30 86° 77° (ENE) 19:13:00 435.3500 MHz FM
Hamsat 21 Aug 19:10:39 19:13:08 15° 270° (W) 19:15:40 145.90 MHz
RS-15 21 Aug 19:13:07 19:23:57 63° 244° (WSW) 19:35:13 29.354 - 29.394 USB, Beacon 29.352 USB
Sapphire 21 Aug 19:28:35 19:33:59 81° 119° (ESE) 19:39:26 437.095 MHz 1200 baud AX-25 AFSK
ISS 21 Aug 19:32:57 19:36:09 41° 24° (NNE) 19:39:20 145.800 FM
STRAND 1 21 Aug 19:57:32 20:02:38 76° 286° (WNW) 20:07:42 ?
PCSat 21 Aug 19:59:21 20:04:40 56° 305° (NW) 20:10:01 145.825 MHz
UKube-1 21 Aug 20:10:57 20:13:53 18° 63° (ENE) 20:16:49 145.840 MHz, 145.915 MHz
HO-68 21 Aug 20:18:15 20:25:09 54° 66° (ENE) 20:32:04 435.675 MHz FM
Oscar 11 21 Aug 20:28:09 20:30:43 16° 63° (ENE) 20:33:18 145.825 FM, Beacon 2401.500 USB
ISS 21 Aug 21:09:48 21:12:50 32° 221° (SW) 21:15:51 145.800 FM
Sapphire 21 Aug 21:14:07 21:18:05 20° 319° (NW) 21:22:04 437.095 MHz 1200 baud AX-25 AFSK
RS-15 21 Aug 21:29:37 21:33:58 13° 265° (W) 21:38:24 29.354 - 29.394 USB, Beacon 29.352 USB
STRAND 1 21 Aug 21:39:36 21:40:56 11° 304° (NW) 21:42:17 ?
UKube-1 21 Aug 21:45:32 21:49:44 48° 260° (W) 21:53:58 145.840 MHz, 145.915 MHz
PCSat 21 Aug 21:46:49 21:49:20 13° 327° (NNW) 21:51:50 145.825 MHz
FUNcube-1 21 Aug 22:00:32 22:04:34 52° 73° (ENE) 22:08:39 145.950 - 145.970 MHz USB
Oscar 11 21 Aug 22:02:14 22:06:28 55° 260° (W) 22:10:45 145.825 FM, Beacon 2401.500 USB
HO-68 21 Aug 22:06:58 22:13:08 31° 265° (W) 22:19:21 435.675 MHz FM
MaSat-1 21 Aug 23:11:31 23:13:50 13° 39° (NE) 23:16:03 437.345 MHz
FUNcube-1 21 Aug 23:39:11 23:41:19 14° 270° (W) 23:43:27 145.950 - 145.970 MHz USB
KITSAT 1 22 Aug 00:23:24 00:30:00 29° 106° (ESE) 00:36:36 435.175 FM
AO-40 22 Aug 00:31:16 01:28:00 12° 113° (ESE) 02:08:56 Beacon 2401.320
MaSat-1 22 Aug 00:47:02 00:51:59 71° 61° (ENE) 00:56:20 437.345 MHz
Saudisat 1A 22 Aug 01:28:02 01:32:27 88° 124° (SE) 01:36:54 436.775 MHz
Oscar 19 22 Aug 01:47:48 01:52:31 34° 96° (E) 01:57:11 437.125 CW, 437.150 USB
JAS-1B 22 Aug 01:52:52 01:57:36 18° 84° (E) 02:01:52 435.800 - 435.900 CW/SSB
AO-Echo 22 Aug 01:54:57 01:58:04 17° 91° (E) 02:01:09 ?
ITAMSAT 1 22 Aug 01:58:36 02:02:13 19° 92° (E) 02:05:48 435.822 SSB
Uribyol 2 22 Aug 02:10:38 02:14:56 26° 94° (E) 02:19:12 436.500 FM
KITSAT 1 22 Aug 02:16:41 02:24:45 70° 306° (NW) 02:32:52 435.175 FM
Oscar 16 22 Aug 02:20:37 02:25:50 70° 102° (ESE) 02:31:00 437.025 USB, Beacon 2401.1428
AO-27 22 Aug 02:24:14 02:28:53 33° 96° (E) 02:33:30 436.795 MHz FM
MaSat-1 22 Aug 02:26:05 02:28:17 13° 262° (W) 02:30:21 437.345 MHz
OPAL 22 Aug 02:32:34 02:34:49 13° 54° (NE) 02:37:04 ?
Sapphire 22 Aug 02:32:55 02:36:33 18° 38° (NE) 02:40:11 437.095 MHz 1200 baud AX-25 AFSK
TMSAT-1 22 Aug 02:55:12 02:59:12 21° 92° (E) 03:03:11 436.925 FM
PCSat 22 Aug 03:02:59 03:07:38 28° 46° (NE) 03:12:16 145.825 MHz
Saudisat 1A 22 Aug 03:09:52 03:12:40 16° 324° (NW) 03:15:28 436.775 MHz
AO-7 22 Aug 03:23:46 03:26:57 12° 86° (E) 03:30:07 29.400 - 29.500 MHz
Oscar 19 22 Aug 03:27:12 03:31:48 33° 294° (WNW) 03:36:23 437.125 CW, 437.150 USB
AO-Echo 22 Aug 03:32:35 03:37:12 52° 289° (WNW) 03:41:44 ?
Gurwin Techsat 1B 22 Aug 03:36:09 03:41:27 67° 102° (ESE) 03:46:43 435.225 FM
ITAMSAT 1 22 Aug 03:37:00 03:42:04 57° 289° (WNW) 03:47:07 435.822 SSB
JAS-1B 22 Aug 03:41:45 03:49:25 79° 288° (WNW) 03:55:47 435.800 - 435.900 CW/SSB
Uribyol 2 22 Aug 03:49:42 03:54:33 42° 291° (WNW) 03:59:23 436.500 FM
Oscar 16 22 Aug 04:01:18 04:04:37 17° 300° (WNW) 04:07:56 437.025 USB, Beacon 2401.1428
AO-27 22 Aug 04:03:46 04:08:22 33° 294° (WNW) 04:12:57 436.795 MHz FM
OPAL 22 Aug 04:07:53 04:12:54 86° 73° (ENE) 04:18:01 ?
Uosat F 22 Aug 04:14:45 04:18:39 22° 94° (E) 04:22:31 435.120 FM
Sapphire 22 Aug 04:15:21 04:20:49 85° 59° (ENE) 04:26:15 437.095 MHz 1200 baud AX-25 AFSK
KITSAT 1 22 Aug 04:15:33 04:21:44 23° 330° (NNW) 04:27:57 435.175 FM
TMSAT-1 22 Aug 04:34:17 04:39:25 52° 289° (WNW) 04:44:32 436.925 FM
PCSat 22 Aug 04:46:04 04:51:20 52° 245° (WSW) 04:56:34 145.825 MHz
AO-7 22 Aug 05:12:57 05:21:15 68° 105° (ESE) 05:29:28 29.400 - 29.500 MHz
SO-50 22 Aug 05:13:35 05:16:34 18° 110° (ESE) 05:19:35 436.795 FM
Gurwin Techsat 1B 22 Aug 05:17:20 05:20:53 18° 300° (WNW) 05:24:25 435.225 FM
JAS-1B 22 Aug 05:34:00 05:38:31 17° 312° (NW) 05:42:39 435.800 - 435.900 CW/SSB
STRAND 1 22 Aug 05:37:02 05:41:05 24° 63° (ENE) 05:45:07 ?
OPAL 22 Aug 05:50:45 05:52:28 12° 270° (W) 05:54:11 ?
Uosat F 22 Aug 05:52:53 05:57:39 45° 291° (WNW) 06:02:23 435.120 FM
Sapphire 22 Aug 06:00:45 06:03:29 14° 257° (WSW) 06:06:12 437.095 MHz 1200 baud AX-25 AFSK
JAS-2 22 Aug 06:02:39 06:06:46 24° 94° (E) 06:10:58 435.800 - 435.900 CW/SSB, 435.910 FM
KITSAT 1 22 Aug 06:16:45 06:20:47 14° 1° (N) 06:24:48 435.175 FM
SO-50 22 Aug 06:52:15 06:56:40 57° 309° (NW) 07:01:12 436.795 FM
Hamsat 22 Aug 06:52:51 06:57:15 89° 104° (ESE) 07:01:36 145.90 MHz
AO-7 22 Aug 07:06:30 07:13:27 31° 305° (NW) 07:20:23 29.400 - 29.500 MHz
STRAND 1 22 Aug 07:15:06 07:20:00 46° 261° (W) 07:24:54 ?
